Location: New York
(40.7140°N, 74.0060°W)
Time: 18:25:27
(UTC-04:00)

ISS - Visible Passes

Search period start: 26 March 2015 00:00
Search period end: 05 April 2015 00:00
Orbit: 396 x 406 km, 51.6° (Epoch: 26 March)

Date Brightness Start Highest point End Pass type
(mag) Time Alt. Az. Time Alt. Az. Time Alt. Az.
26 Mar -0.2 04:21:34 12° NNE 04:21:34 12° NNE 04:22:34 10° NNE visible
26 Mar -1.4 05:55:27 10° NW 05:58:17 27° NNE 06:01:07 10° E visible
27 Mar -0.9 05:03:00 13° NNW 05:04:46 19° NNE 05:07:13 10° ENE visible
28 Mar -0.2 04:11:54 14° NNE 04:11:54 14° NNE 04:13:10 10° NE visible
28 Mar -2.6 05:44:58 10° NW 05:48:09 51° NNE 05:51:18 10° ESE visible
29 Mar -1.6 04:53:33 24° NNW 04:54:40 30° NNE 04:57:36 10° E visible
30 Mar -0.2 04:02:44 15° ENE 04:02:44 15° ENE 04:03:38 10° ENE visible
30 Mar -3.5 05:35:21 16° WNW 05:37:46 69° SW 05:40:58 10° SE visible
31 Mar -2.6 04:44:46 53° ENE 04:44:46 53° ENE 04:47:31 10° ESE visible
01 Apr -2.4 05:27:06 28° SW 05:27:07 28° SW 05:29:56 10° SSE visible
02 Apr -1.0 21:09:02 10° SSW 21:09:47 16° SSW 21:09:47 16° SSW visible
03 Apr -2.1 20:16:07 10° S 20:18:45 23° SE 20:19:57 19° ESE visible
03 Apr -0.4 21:51:55 10° WSW 21:52:36 15° W 21:52:36 15° W visible
04 Apr -3.2 20:58:07 10° WSW 21:01:23 74° NW 21:02:25 40° NE visible
